{"data":{"norad_id":67629,"intl_designator":"2026-020N","name":"STARLINK-36367","alt_names":[],"object_type":"PAYLOAD","status":"ACTIVE","operator":null,"country":"US","launch_date":"2026-01-30","launch_site_code":"AFETR","launch_vehicle":null,"mission":null,"orbit_class":"UNKNOWN","rcs_meters":null,"size_class":null,"mass_kg":null,"dimensions":null,"purposes":["comms"],"wikipedia_slug":null,"has_3d_model":false,"image_url":null,"decayed_at":null,"tle_current":{"epoch":"2026-05-25T04:08:22.134624Z","epoch_age_seconds":50420,"freshness":"FRESH","line1":"1 67629U 26020N   26145.17247841  .00013959  00000+0  51588-3 0  9998","line2":"2 67629  43.0068  67.5816 0002025 267.2366  92.8254 15.27575708 17811","mean_motion":15.27575708,"eccentricity":0.0002025,"inclination_deg":43.0068,"raan_deg":67.5816,"arg_perigee_deg":267.2366,"mean_anomaly_deg":92.8254,"bstar":0.00051588,"rev_number":1781,"period_min":94.267013573117,"perigee_km":481.67255507484,"apogee_km":484.45134064873,"semimajor_km":6861.1989478618,"source":"CELESTRAK","updated_at":"2026-05-25T13:38:21.651742Z"}}}